sat.trackr.live / text

‹ back to catalog

TRANSPORTER-12 OBJECT M

NORAD 62620 · 2025-009M

PAYLOAD ACTIVE UNKNOWN

§ Identity

Operator
Country
TBD
Launch date
2025-01-14
Launch site
AFWTR
Launch vehicle
Mass (kg)
RCS (m²)

External: N2YO · Heavens-Above · Gunter

§ Orbital elements

Epoch: 2026-05-25T05:00:02.225376Z

Period
92.47 min
Inclination
97.3923°
Eccentricity
0.0000918
Mean motion
15.57340422 rev/d
Perigee alt
394.7 km
Apogee alt
396.0 km
Semi-major
6,773.5 km
B*
1.1829e-3
RAAN
234.2535°
Arg perigee
23.5842°
Mean anomaly
336.5455°
Rev number
7,587

§ Raw data

TRANSPORTER-12 OBJECT M1 62620U 25009M   26145.20835909  .00087147  00000+0  11829-2 0  99952 62620  97.3923 234.2535 0000918  23.5842 336.5455 15.57340422 75878

JSON: /api/v1/satellites/62620 · /tle

For live sub-satellite position, see the globe view (requires WebGL).

§ Visibility from observer

Set your observer location to see the next 7 days of passes ≥ 10°. The values pass through the URL so the page stays shareable.

No JS? Fill the form by hand. The geolocation button needs JavaScript.